STARLINK-30922, 58414

Orbit data source: Space-Track

STARLINK-30922, 58414 is a payload satellite owned by SpaceX/Seattle (US) in LEO that was launched on Wed, 22 Nov 2023 UTC via an FALCON 9 launch vehicle from the Air Force Eastern Test Range (AFETR). Payload-class satellites include a variety of spacecraft equipped with specific instruments for various scientific and technological missions. These include communications satellites like Starlink; space stations such as the ISS; scientific satellites like the Hubble; Earth observation satellites from companies like Planet Labs, Umbra, and HawkEye 360; GPS; miniature CubeSats for education and research; and military/defense satellites.

Loading next visibility...
Identifier
58414, 2023-180N
Orbit
LEO
Country
Flag of USUS
Related business
Manufacturer
SpaceX/Seattle
Mission
Operational Commercial Communications
Bus & Motor
STARLINK V2M, Unknown motor
Mass
730 kg wet, ~700 kg dry
Launch date (UTC)
2023-11-22 (2 years ago)
Launch vehicle
FALCON 9
Launch site
Air Force Eastern Test Range (AFETR)
Object type
Payload
Rocket body
Debris
Shape & HBR
Box + 2 Pan, 14.5 m
Radar Cross Section
33.884 m², Large (>1 m²)

Expand to show TLE details & history
Last TLE update: 13 hours ago

TLE from 13 hours ago
0 STARLINK-30922
1 58414U 23180N   25250.27110994 -.00000099  00000-0  77364-5 0  9994
2 58414  43.0027 332.7037 0001402 271.0357  89.0325 15.02540552 99999
Epoch: 2025-09-07T06:30Z
TLE epoch observation values (Epoch: 2025-09-07T06:30:23.898Z)
Latitude
-0.00001°
Longitude
-111.48887°
Altitude
558.827 km
Speed
7.584 km/s
True Right ascension
22h 10m 48s
True Declination
0° 00' 00"
Sunlit
Object was in full shadow at epoch
Visualization orbit readout
Latitude
Unknown
Longitude
Unknown
Altitude
Unknown
Speed
Unknown
Apparent Right ascension
Unknown
Apparent Declination
Unknown
Sunlit
N/A
Visualization observer readout
Local Sidereal Time
11:43:39
Azimuth
Unknown
Elevation
Unknown
Doppler factor
Unknown
Orbital elements
Apogee altitude
561.962 km
Perigee altitude
560.016 km
Semi-major axis
6,939.126 km
Eccentricity
0.00014
Inclination
43.0027°
RAAN
332.7037°
Arg. of periapsis
271.0357°
True anomaly
89.04856°
Mean anomaly
89.0325°
Eccentric anomaly
89.04053°
Mean motion
3.75479 °/min
Orbital period
95.88 mins
BSTAR
0.0000077364
Loading maneuver chart data...
Computing Atmospheric mass density...
Loading historical data...
Loading historical data...
Loading historical data...
Loading historical data...
Loading historical data...
Loading historical data...
Loading historical data...

Documentation

Showing up to 5 results
|